CGCOT CYWG-CYPG

Flight info

Callsign CGCOT
Flight time N/A
Altitude 4000
Route LIVBI
Aircraft S22T/L-SDGRY/S

Departure

Time 2026-05-07 03:43
Airport Winnipeg / James Armstrong Richardson International Airport (CYWG)

Arrival

Time N/A
Airport Portage-la-Prairie / Southport Airport (CYPG)
Time Latitude Longitude Altitude Speed Heading
2026-05-07 03:30 49.89718 -97.22236 777 ft 0 kts
2026-05-07 03:40 49.89718 -97.22282 777 ft 14 kts 220°
2026-05-07 03:40 49.89628 -97.22396 778 ft 22 kts 283°
2026-05-07 03:40 49.89682 -97.22497 777 ft 0 kts 317°
2026-05-07 03:41 49.89677 -97.22544 777 ft 16 kts 220°
2026-05-07 03:41 49.89564 -97.22729 774 ft 29 kts 230°
2026-05-07 03:41 49.89485 -97.22982 771 ft 25 kts 277°
2026-05-07 03:42 49.89510 -97.23291 772 ft 28 kts 277°
2026-05-07 03:42 49.89536 -97.23623 778 ft 32 kts 278°
2026-05-07 03:42 49.89558 -97.23902 784 ft 9 kts 276°
2026-05-07 03:42 49.89567 -97.24030 785 ft 18 kts 277°
2026-05-07 03:43 49.89669 -97.24151 786 ft 38 kts
2026-05-07 03:43 49.90183 -97.24043 844 ft 97 kts
2026-05-07 03:43 49.90719 -97.24608 1248 ft 106 kts 280°
2026-05-07 03:43 49.90373 -97.25535 1768 ft 103 kts 218°
2026-05-07 03:44 49.89923 -97.26389 2256 ft 102 kts 236°
2026-05-07 03:44 49.89759 -97.27434 2717 ft 102 kts 274°
2026-05-07 03:44 49.89768 -97.28520 3153 ft 103 kts 273°
2026-05-07 03:44 49.89795 -97.29623 3615 ft 101 kts 276°
2026-05-07 03:45 49.89833 -97.30715 4007 ft 108 kts 277°
2026-05-07 03:45 49.89894 -97.32003 4013 ft 128 kts 277°
2026-05-07 03:45 49.89962 -97.33439 4012 ft 138 kts 277°
2026-05-07 03:45 49.90033 -97.34957 4012 ft 143 kts 277°
2026-05-07 03:46 49.90106 -97.36517 4012 ft 146 kts 277°
2026-05-07 03:46 49.90282 -97.38063 4002 ft 146 kts 299°
2026-05-07 03:46 49.91071 -97.38954 3991 ft 147 kts 348°
2026-05-07 03:46 49.92045 -97.38525 3991 ft 154 kts 36°
2026-05-07 03:47 49.92502 -97.37018 4013 ft 163 kts 84°
2026-05-07 03:47 49.92103 -97.35378 3990 ft 169 kts 131°
2026-05-07 03:47 49.91068 -97.34609 3992 ft 167 kts 173°
2026-05-07 03:47 49.90027 -97.33874 3989 ft 168 kts 133°
2026-05-07 03:48 49.89389 -97.32370 4016 ft 166 kts 119°
2026-05-07 03:48 49.88777 -97.30830 3826 ft 165 kts 120°
2026-05-07 03:48 49.88184 -97.29349 3614 ft 159 kts 120°
2026-05-07 03:48 49.87625 -97.27902 3394 ft 154 kts 110°
2026-05-07 03:49 49.87448 -97.26303 3192 ft 150 kts 94°
2026-05-07 03:49 49.87451 -97.24707 2964 ft 148 kts 72°
2026-05-07 03:49 49.88105 -97.23571 2743 ft 144 kts 21°
2026-05-07 03:49 49.89077 -97.23232 2538 ft 143 kts
2026-05-07 03:50 49.90058 -97.22953 2326 ft 144 kts 10°
2026-05-07 03:50 49.91048 -97.22693 2115 ft 145 kts 10°
2026-05-07 03:50 49.92034 -97.22457 2004 ft 139 kts
2026-05-07 03:50 49.92990 -97.22236 2029 ft 141 kts
2026-05-07 03:51 49.93939 -97.22583 2022 ft 147 kts 320°
2026-05-07 03:51 49.94404 -97.23964 2027 ft 147 kts 282°
2026-05-07 03:51 49.94634 -97.25517 2037 ft 148 kts 277°
2026-05-07 03:51 49.94602 -97.27091 2032 ft 147 kts 246°
2026-05-07 03:52 49.93877 -97.28093 2028 ft 143 kts 194°
2026-05-07 03:52 49.92900 -97.28342 2038 ft 143 kts 187°
2026-05-07 03:52 49.91914 -97.28589 2009 ft 145 kts 188°
2026-05-07 03:52 49.90914 -97.28824 2000 ft 146 kts 187°
2026-05-07 03:53 49.89902 -97.29066 2010 ft 146 kts 188°
2026-05-07 03:53 49.88905 -97.29306 2007 ft 144 kts 188°
2026-05-07 03:53 49.87927 -97.29545 2003 ft 139 kts 188°
2026-05-07 03:53 49.86998 -97.29769 1991 ft 135 kts 187°
2026-05-07 03:54 49.86078 -97.29951 1988 ft 132 kts 176°
2026-05-07 03:54 49.85349 -97.29243 1989 ft 127 kts 118°
2026-05-07 03:54 49.85030 -97.27974 1991 ft 126 kts 102°
2026-05-07 03:54 49.85063 -97.26653 1956 ft 122 kts 80°
2026-05-07 03:55 49.85232 -97.25355 1869 ft 123 kts 76°
2026-05-07 03:55 49.85815 -97.24421 1706 ft 132 kts 20°
2026-05-07 03:55 49.86728 -97.24563 1571 ft 130 kts 342°
2026-05-07 03:55 49.87555 -97.24733 1459 ft 115 kts 11°
2026-05-07 03:56 49.88319 -97.24535 1285 ft 111 kts 12°
2026-05-07 03:56 49.89090 -97.24336 1023 ft 116 kts 13°
2026-05-07 03:56 49.89904 -97.24099 825 ft 122 kts
2026-05-07 03:56 49.90768 -97.23954 1198 ft 122 kts
2026-05-07 03:57 49.91549 -97.23482 1591 ft 125 kts 21°
2026-05-07 03:57 49.92433 -97.23321 2002 ft 132 kts
2026-05-07 03:57 49.93434 -97.23241 2038 ft 155 kts 351°
2026-05-07 03:57 49.94342 -97.24203 2034 ft 168 kts 302°
2026-05-07 03:58 49.94616 -97.25967 2036 ft 172 kts 272°
2026-05-07 03:58 49.94640 -97.27838 2034 ft 174 kts 259°
2026-05-07 03:58 49.94023 -97.29372 2024 ft 168 kts 215°
2026-05-07 03:58 49.92930 -97.29906 2023 ft 165 kts 187°
2026-05-07 03:59 49.91793 -97.30172 2010 ft 165 kts 188°
2026-05-07 03:59 49.90657 -97.30445 2010 ft 165 kts 188°
2026-05-07 03:59 49.89522 -97.30716 2010 ft 165 kts 188°
2026-05-07 03:59 49.88401 -97.30985 2010 ft 165 kts 187°
2026-05-07 04:00 49.87265 -97.31073 2002 ft 164 kts 166°
2026-05-07 04:00 49.86384 -97.30037 1989 ft 163 kts 119°
2026-05-07 04:00 49.86121 -97.28344 1996 ft 162 kts 97°
2026-05-07 04:00 49.85968 -97.26615 1996 ft 162 kts 98°
2026-05-07 04:01 49.86274 -97.24964 2016 ft 165 kts 53°
2026-05-07 04:01 49.87251 -97.24031 1799 ft 172 kts 22°
2026-05-07 04:01 49.88342 -97.23497 1435 ft 156 kts 17°
2026-05-07 04:01 49.89350 -97.23092 1173 ft 142 kts 17°
2026-05-07 04:02 49.90284 -97.22683 1017 ft 147 kts 24°
2026-05-07 04:02 49.91009 -97.21798 1569 ft 130 kts 30°
2026-05-07 04:02 49.91922 -97.21529 1951 ft 135 kts
2026-05-07 04:02 49.92930 -97.21358 2025 ft 156 kts
2026-05-07 04:03 49.93976 -97.21022 2021 ft 153 kts 28°
2026-05-07 04:03 49.94594 -97.19781 2012 ft 148 kts 79°
2026-05-07 04:03 49.94603 -97.18212 2022 ft 145 kts 93°
2026-05-07 04:03 49.94277 -97.16792 2015 ft 143 kts 135°
2026-05-07 04:04 49.93376 -97.16310 2023 ft 142 kts 183°
2026-05-07 04:04 49.92398 -97.16547 2031 ft 142 kts 187°
2026-05-07 04:04 49.91421 -97.16779 2010 ft 142 kts 187°
2026-05-07 04:04 49.90441 -97.17011 2010 ft 142 kts 187°
2026-05-07 04:05 49.89463 -97.17249 2008 ft 142 kts 188°
2026-05-07 04:05 49.88485 -97.17485 2009 ft 142 kts 187°
2026-05-07 04:05 49.87506 -97.17723 2009 ft 143 kts 187°
2026-05-07 04:05 49.86523 -97.17954 2007 ft 143 kts 187°
2026-05-07 04:06 49.85568 -97.18354 1995 ft 145 kts 211°
2026-05-07 04:06 49.85066 -97.19672 1988 ft 149 kts 263°
2026-05-07 04:06 49.85198 -97.21262 1998 ft 149 kts 278°
2026-05-07 04:06 49.85378 -97.22848 1999 ft 150 kts 281°
2026-05-07 04:07 49.85807 -97.24283 1987 ft 139 kts 301°
2026-05-07 04:07 49.86548 -97.25012 1847 ft 126 kts
2026-05-07 04:07 49.87407 -97.24818 1589 ft 119 kts 18°
2026-05-07 04:07 49.88097 -97.24572 1391 ft 91 kts
2026-05-07 04:08 49.88711 -97.24439 1111 ft 88 kts 11°
2026-05-07 04:08 49.89291 -97.24277 915 ft 84 kts 15°
2026-05-07 04:08 49.89830 -97.24127 788 ft 71 kts 12°
2026-05-07 04:08 49.90202 -97.24030 774 ft 30 kts
2026-05-07 04:09 49.90377 -97.23987 777 ft 25 kts
2026-05-07 04:09 49.90533 -97.23942 780 ft 17 kts 317°
2026-05-07 04:09 49.90432 -97.23990 779 ft 21 kts 182°
2026-05-07 04:09 49.90338 -97.23967 776 ft 12 kts 116°
2026-05-07 04:10 49.90280 -97.23849 778 ft 15 kts 138°
2026-05-07 04:10 49.90266 -97.23830 779 ft 0 kts 139°
2026-05-07 04:11 49.90266 -97.23829 779 ft 1 kts 139°
2026-05-07 04:11 49.90235 -97.23783 779 ft 15 kts 135°
2026-05-07 04:12 49.90129 -97.23628 781 ft 26 kts 137°
2026-05-07 04:12 49.89981 -97.23413 779 ft 31 kts 141°
2026-05-07 04:12 49.89816 -97.23193 773 ft 31 kts 139°
2026-05-07 04:12 49.89656 -97.22975 770 ft 30 kts 137°
2026-05-07 04:13 49.89499 -97.22850 771 ft 27 kts 212°
2026-05-07 04:13 49.89496 -97.23125 771 ft 28 kts 277°
2026-05-07 04:13 49.89440 -97.23352 772 ft 26 kts 175°
2026-05-07 04:13 49.89369 -97.23314 774 ft 0 kts 83°